RADUGA 32 [-]

Last updated on Oct. 25, 2020, 5:56 a.m. UTC

1 23448U 94087A   20298.01216990 -.00000098  00000-0  00000-0 0  9996
2 23448  14.7586   7.2132 0003368 221.9778 240.8627  1.00262287112208
UTC
Height (km)
Latitude
Longitude
Inclination
Orbital Period
UTC large
Height (km)
Speed (km/s)
/
Latitude / Longitude
Inclination (degrees)
Orbital Period (minutes)
Azimuth
Elevation
Range (km)
Doppler Factor
iOS Compass Heading
iOS Angle

Next 30 passes for location: Hong Kong

Rise time Rise Azimuth (degrees) Set time Set Azimuth (degrees) Duration Max altitude (degrees)

No matching passes for this satellites